When you browse on this site, cookies collect data to enhance your experience and personalize the content and advertising you see.
Visit our Privacy Policy to learn more. By continuing to use the site, you agree to this use of cookies and data.
  • En España
  • Lista de países
  • Para 7 días
  • Temperatura del agua
  • Mapa Satelital
  • El tiempo en el mapa
  • Informadores
  • user-avatar
    Iniciar sesión

    Tiempo cada hora Liège

    Hoy, 16 Diciembre, Domingo

    Tiempo Temperatura Precipitaciones Viento Presión Humedad
    00:00 -3°C° 0 mm 6 mps 750 mmHg 88%
    01:00 -2°C° 0.9 mm 5 mps 749 mmHg 89%
    02:00 -2°C° 0.9 mm 5 mps 749 mmHg 89%
    03:00 -1°C° 0.9 mm 5 mps 749 mmHg 90%
    04:00 -1°C° 0.1 mm 4 mps 748 mmHg 91%
    05:00 -1°C° 0.1 mm 4 mps 748 mmHg 91%
    06:00 -2°C° 0 mm 4 mps 748 mmHg 90%
    07:00 -2°C° 0 mm 4 mps 749 mmHg 91%
    08:00 0°C° 0 mm 3 mps 749 mmHg 92%
    09:00 0°C° 0 mm 3 mps 749 mmHg 93%
    10:00 +1°C° 0.1 mm 3 mps 749 mmHg 94%
    11:00 +2°C° 0.1 mm 3 mps 749 mmHg 96%
    12:00 +2°C° 0.1 mm 3 mps 749 mmHg 97%
    13:00 +2°C° 0.1 mm 3 mps 750 mmHg 97%
    14:00 +2°C° 0.1 mm 3 mps 750 mmHg 98%
    15:00 +2°C° 0.1 mm 3 mps 750 mmHg 98%
    16:00 +2°C° 0 mm 3 mps 750 mmHg 98%
    17:00 +2°C° 0 mm 3 mps 750 mmHg 98%
    18:00 +2°C° 0 mm 3 mps 750 mmHg 97%
    19:00 +2°C° 0 mm 3 mps 750 mmHg 97%
    20:00 +2°C° 0 mm 3 mps 751 mmHg 97%
    21:00 +2°C° 0 mm 3 mps 751 mmHg 97%
    22:00 +2°C° 0 mm 3 mps 751 mmHg 96%
    23:00 +2°C° 0 mm 3 mps 751 mmHg 95%

    Mañana, 17 Diciembre, Lunes

    Tiempo Temperatura Precipitaciones Viento Presión Humedad
    00:00 +1°C° 0 mm 4 mps 751 mmHg 95%
    01:00 +1°C° 0 mm 4 mps 751 mmHg 94%
    02:00 +1°C° 0 mm 4 mps 751 mmHg 93%
    03:00 +1°C° 0 mm 4 mps 751 mmHg 93%
    04:00 +1°C° 0 mm 4 mps 751 mmHg 93%
    05:00 +1°C° 0 mm 4 mps 751 mmHg 93%
    06:00 +1°C° 0 mm 5 mps 752 mmHg 92%
    07:00 +1°C° 0 mm 5 mps 752 mmHg 93%
    08:00 +2°C° 0 mm 5 mps 753 mmHg 93%
    09:00 +2°C° 0 mm 5 mps 753 mmHg 93%
    10:00 +3°C° 0.2 mm 5 mps 754 mmHg 93%
    11:00 +3°C° 0.2 mm 5 mps 754 mmHg 93%
    12:00 +3°C° 0.2 mm 5 mps 755 mmHg 93%
    13:00 +3°C° 0.2 mm 5 mps 755 mmHg 93%
    14:00 +3°C° 0.2 mm 5 mps 756 mmHg 93%
    15:00 +3°C° 0.2 mm 5 mps 756 mmHg 93%
    16:00 +4°C° 0 mm 4 mps 757 mmHg 93%
    17:00 +3°C° 0 mm 4 mps 757 mmHg 94%
    18:00 +3°C° 0 mm 3 mps 758 mmHg 94%
    19:00 +3°C° 0 mm 3 mps 759 mmHg 95%
    20:00 +3°C° 0 mm 3 mps 759 mmHg 95%
    21:00 +3°C° 0 mm 3 mps 759 mmHg 96%
    22:00 +3°C° 0 mm 3 mps 759 mmHg 96%
    23:00 +2°C° 0 mm 3 mps 760 mmHg 95%

    Pasado mañana, 18 Diciembre, Martes

    Tiempo Temperatura Precipitaciones Viento Presión Humedad
    00:00 +2°C° 0 mm 3 mps 760 mmHg 95%
    01:00 +2°C° 0 mm 3 mps 759 mmHg 95%
    02:00 +2°C° 0 mm 3 mps 759 mmHg 95%
    03:00 +1°C° 0 mm 4 mps 759 mmHg 94%
    04:00 +1°C° 0 mm 4 mps 759 mmHg 94%
    05:00 +1°C° 0 mm 4 mps 759 mmHg 94%
    06:00 +1°C° 0 mm 4 mps 759 mmHg 94%
    07:00 +1°C° 0 mm 4 mps 758 mmHg 93%
    08:00 +3°C° 0 mm 4 mps 758 mmHg 92%
    09:00 +3°C° 0 mm 4 mps 758 mmHg 91%
    10:00 +4°C° 0 mm 4 mps 757 mmHg 87%
    11:00 +3°C° 0 mm 5 mps 756 mmHg 83%
    12:00 +5°C° 0 mm 5 mps 756 mmHg 79%
    13:00 +5°C° 0 mm 5 mps 755 mmHg 79%
    14:00 +3°C° 0 mm 5 mps 754 mmHg 78%
    15:00 +3°C° 0 mm 5 mps 753 mmHg 77%
    16:00 +3°C° 0 mm 5 mps 753 mmHg 76%
    17:00 +2°C° 0 mm 5 mps 752 mmHg 75%
    18:00 +2°C° 0 mm 6 mps 752 mmHg 74%
    19:00 +2°C° 0 mm 6 mps 751 mmHg 74%
    20:00 +3°C° 0 mm 6 mps 751 mmHg 74%
    21:00 +3°C° 0 mm 6 mps 751 mmHg 74%
    22:00 +3°C° 0 mm 6 mps 750 mmHg 76%
    23:00 +4°C° 0 mm 6 mps 750 mmHg 78%

    19 Diciembre, Miércoles

    Tiempo Temperatura Precipitaciones Viento Presión Humedad
    00:00 +4°C° 0 mm 6 mps 749 mmHg 80%
    01:00 +4°C° 0.3 mm 6 mps 749 mmHg 83%
    02:00 +4°C° 0.3 mm 6 mps 749 mmHg 86%
    03:00 +5°C° 0.3 mm 6 mps 749 mmHg 88%
    04:00 +6°C° 0.1 mm 5 mps 750 mmHg 90%
    05:00 +6°C° 0.1 mm 5 mps 750 mmHg 91%
    06:00 +5°C° 0.1 mm 4 mps 750 mmHg 93%
    07:00 +5°C° 0 mm 4 mps 750 mmHg 93%
    08:00 +5°C° 0 mm 4 mps 751 mmHg 93%
    09:00 +5°C° 0 mm 4 mps 751 mmHg 93%
    10:00 +6°C° 0 mm 4 mps 751 mmHg 91%
    11:00 +6°C° 0 mm 4 mps 751 mmHg 88%
    12:00 +7°C° 0 mm 5 mps 751 mmHg 86%
    13:00 +6°C° 0.1 mm 4 mps 751 mmHg 87%
    14:00 +6°C° 0.1 mm 4 mps 750 mmHg 88%
    15:00 +6°C° 0.1 mm 4 mps 750 mmHg 89%
    16:00 +6°C° 0.3 mm 4 mps 750 mmHg 90%
    17:00 +7°C° 0.3 mm 3 mps 750 mmHg 91%
    18:00 +7°C° 0.3 mm 3 mps 750 mmHg 92%
    19:00 +5°C° 0.2 mm 3 mps 750 mmHg 93%
    20:00 +5°C° 0.2 mm 3 mps 751 mmHg 94%
    21:00 +5°C° 0.2 mm 3 mps 751 mmHg 95%
    22:00 +4°C° 0 mm 3 mps 751 mmHg 95%
    23:00 +4°C° 0 mm 3 mps 751 mmHg 95%

    20 Diciembre, Jueves

    Tiempo Temperatura Precipitaciones Viento Presión Humedad
    00:00 +4°C° 0 mm 3 mps 751 mmHg 95%
    01:00 +3°C° 0 mm 3 mps 752 mmHg 95%
    02:00 +3°C° 0 mm 3 mps 752 mmHg 95%
    03:00 +3°C° 0 mm 3 mps 752 mmHg 95%
    04:00 +3°C° 0 mm 3 mps 752 mmHg 94%
    05:00 +3°C° 0 mm 3 mps 753 mmHg 94%
    06:00 +3°C° 0 mm 3 mps 753 mmHg 94%
    07:00 +3°C° 0 mm 4 mps 753 mmHg 93%
    08:00 +3°C° 0 mm 4 mps 754 mmHg 92%
    09:00 +3°C° 0 mm 4 mps 754 mmHg 91%
    10:00 +3°C° 0 mm 5 mps 754 mmHg 88%
    11:00 +3°C° 0 mm 5 mps 754 mmHg 86%
    12:00 +5°C° 0 mm 5 mps 754 mmHg 84%
    13:00 +5°C° 0 mm 5 mps 754 mmHg 85%
    14:00 +3°C° 0 mm 5 mps 754 mmHg 86%
    15:00 +3°C° 0 mm 5 mps 754 mmHg 87%
    16:00 +3°C° 0 mm 5 mps 754 mmHg 87%
    17:00 +3°C° 0 mm 6 mps 754 mmHg 87%
    18:00 +3°C° 0 mm 6 mps 754 mmHg 87%
    19:00 +4°C° 0.1 mm 6 mps 753 mmHg 87%
    20:00 +4°C° 0.1 mm 6 mps 753 mmHg 87%
    21:00 +5°C° 0.1 mm 6 mps 753 mmHg 87%
    22:00 +5°C° 0.1 mm 6 mps 752 mmHg 87%
    23:00 +5°C° 0.1 mm 6 mps 752 mmHg 88%

    21 Diciembre, Viernes

    Tiempo Temperatura Precipitaciones Viento Presión Humedad
    00:00 +5°C° 0.1 mm 6 mps 751 mmHg 88%
    01:00 +5°C° 1.2 mm 6 mps 751 mmHg 88%
    02:00 +5°C° 1.2 mm 7 mps 750 mmHg 88%
    03:00 +5°C° 1.2 mm 7 mps 750 mmHg 89%
    04:00 +6°C° 1.2 mm 7 mps 749 mmHg 89%
    05:00 +6°C° 1.2 mm 7 mps 748 mmHg 89%
    06:00 +8°C° 1.2 mm 7 mps 748 mmHg 90%
    07:00 +8°C° 1.1 mm 7 mps 747 mmHg 89%
    08:00 +7°C° 1.1 mm 8 mps 747 mmHg 88%
    09:00 +7°C° 1.1 mm 8 mps 746 mmHg 87%
    10:00 +7°C° 0.6 mm 8 mps 746 mmHg 87%
    11:00 +8°C° 0.6 mm 9 mps 745 mmHg 86%
    12:00 +8°C° 0.6 mm 9 mps 744 mmHg 85%
    13:00 +8°C° 0.4 mm 9 mps 744 mmHg 85%
    14:00 +10°C° 0.4 mm 9 mps 744 mmHg 84%
    15:00 +11°C° 0.4 mm 9 mps 745 mmHg 84%
    16:00 +10°C° 0 mm 9 mps 746 mmHg 84%
    17:00 +9°C° 0 mm 8 mps 747 mmHg 84%
    18:00 +8°C° 0 mm 7 mps 748 mmHg 84%
    19:00 +8°C° 0.1 mm 7 mps 749 mmHg 84%
    20:00 +8°C° 0.1 mm 7 mps 749 mmHg 85%
    21:00 +8°C° 0.1 mm 7 mps 750 mmHg 86%
    22:00 +8°C° 0 mm 7 mps 750 mmHg 85%
    23:00 +7°C° 0 mm 8 mps 750 mmHg 85%
    Mostrar más